FW3598 Weather Reports


Display with metric or nautical units.
time (UTC)temp
F
wind
direction
speed
MPH
gust
MPH
rain 1hr
in
rain 24hr
in
rain mn
in
humidity
%
barometer
mb
20260509043123 56 68 0.0 0.0 0.00 0.00 0.00 83 1021.3
20260509042145 57 90 0.0 0.0 0.00 0.00 0.00 82 1021.2
20260509041144 57 113 0.0 0.0 0.00 0.00 0.00 81 1021.2
20260509040123 57 90 0.0 0.0 0.00 0.00 0.00 81 1021.0
20260509035123 57 45 0.0 0.0 0.00 0.00 0.00 80 1021.0
20260509034123 57 90 0.0 0.0 0.00 0.00 0.00 80 1020.8
20260509033123 57 68 0.0 2.0 0.00 0.00 0.00 78 1020.8
20260509032123 58 167 0.0 2.0 0.00 0.00 0.00 77 1020.8
20260509031144 58 135 0.0 2.0 0.00 0.00 0.00 76 1020.7
20260509030123 58 113 0.0 2.0 0.00 0.00 0.00 76 1020.7
20260509025124 59 90 0.0 2.0 0.00 0.00 0.00 76 1020.7
20260509024123 59 113 0.0 3.0 0.00 0.00 0.00 74 1020.6
20260509023123 59 105 0.0 3.0 0.00 0.00 0.00 74 1020.5
20260509022144 60 117 0.0 3.0 0.00 0.00 0.00 73 1020.3
20260509021123 60 80 0.0 4.0 0.00 0.00 0.00 73 1020.3
20260509020124 60 90 0.0 3.0 0.00 0.00 0.00 73 1020.3
20260509015123 60 101 0.0 6.0 0.00 0.00 0.00 72 1020.3
20260509014124 60 173 0.0 3.0 0.00 0.00 0.00 72 1020.3
20260509013123 60 104 0.0 3.0 0.00 0.00 0.00 72 1020.3
20260509012123 61 113 0.0 2.0 0.00 0.00 0.00 71 1020.3
20260509011123 61 117 0.0 3.0 0.00 0.00 0.00 70 1020.2
20260509010123 61 95 0.0 7.0 0.00 0.00 0.00 69 1020.2
20260509005145 62 143 0.0 3.0 0.00 0.00 0.00 70 1020.2
20260509004123 63 135 0.0 2.0 0.00 0.00 0.00 66 1020.1
20260509003124 64 110 0.0 6.0 0.00 0.00 0.00 66 1020.1
20260509002123 64 158 0.0 3.0 0.00 0.00 0.00 66 1020.1
20260509001123 64 160 1.0 8.0 0.00 0.00 0.00 66 1020.1
20260509000123 64 180 0.0 7.0 0.00 0.00 0.00 65 1020.1
20260508235123 64 112 0.0 4.0 0.00 0.00 0.00 65 1020.1
20260508234124 63 135 0.0 5.0 0.00 0.00 0.00 68 1020.1
20260508233123 62 159 0.0 6.0 0.00 0.00 0.00 68 1019.8
20260508232124 62 119 2.0 14.0 0.00 0.00 0.00 68 1020.0
20260508231123 63 111 3.0 11.0 0.00 0.00 0.00 70 1020.1
20260508230124 62 137 3.0 13.0 0.00 0.00 0.00 70 1020.1
20260508225123 62 150 2.0 10.0 0.00 0.00 0.00 71 1020.1
20260508224144 61 153 2.0 12.0 0.00 0.00 0.00 71 1019.8
20260508223123 61 147 2.0 10.0 0.00 0.00 0.00 70 1019.7
20260508222123 62 130 2.0 13.0 0.00 0.00 0.00 70 1019.8
20260508221145 62 127 3.0 15.0 0.00 0.00 0.00 70 1019.7
20260508220123 62 143 3.0 14.0 0.00 0.00 0.00 69 1019.7
20260508215124 64 152 2.0 12.0 0.00 0.00 0.00 69 1019.7
20260508214123 63 116 5.0 14.0 0.00 0.00 0.00 70 1019.5
20260508213123 62 128 3.0 14.0 0.00 0.00 0.00 70 1019.5
20260508212124 63 141 3.0 16.0 0.00 0.00 0.00 69 1019.5
20260508211123 63 96 3.0 15.0 0.00 0.00 0.00 69 1019.3
20260508210124 64 130 2.0 13.0 0.00 0.00 0.00 70 1019.3
20260508205123 62 138 3.0 23.0 0.00 0.00 0.00 72 1019.3
20260508204124 62 144 2.0 15.0 0.00 0.00 0.00 73 1019.2
20260508203144 62 119 0.0 3.0 0.00 0.00 0.00 75 1019.3
20260508202123 62 124 0.0 8.0 0.00 0.00 0.00 74 1019.1
20260508201145 61 125 0.0 6.0 0.00 0.00 0.00 76 1019.0
20260508200144 61 107 0.0 2.0 0.00 0.00 0.00 76 1018.8
20260508195124 62 144 0.0 2.0 0.00 0.00 0.00 75 1018.8
20260508194123 61 104 0.0 2.0 0.00 0.00 0.00 76 1018.7
20260508193123 60 108 0.0 8.0 0.00 0.00 0.00 78 1018.7
20260508192123 60 113 0.0 3.0 0.00 0.00 0.00 79 1018.3
20260508191123 60 110 0.0 4.0 0.00 0.00 0.00 81 1018.3
20260508190123 59 84 0.0 3.0 0.00 0.00 0.00 81 1018.2
20260508185123 59 158 0.0 2.0 0.00 0.00 0.00 81 1018.2
20260508184124 59 101 0.0 2.0 0.00 0.00 0.00 84 1018.1
20260508183123 60 113 0.0 2.0 0.00 0.00 0.00 87 1017.8
20260508182145 59 113 0.0 0.0 0.00 0.00 0.00 87 1017.8
20260508181123 58 124 0.0 5.0 0.00 0.00 0.00 87 1017.8
20260508180123 58 110 0.0 8.0 0.00 0.00 0.00 87 1017.7
20260508175123 59 56 0.0 2.0 0.00 0.00 0.00 88 1017.7
20260508174123 57 113 0.0 5.0 0.00 0.00 0.00 89 1017.6
20260508173124 57 119 0.0 3.0 0.00 0.00 0.00 90 1017.7
20260508172123 57 156 0.0 3.0 0.00 0.00 0.00 89 1017.6
20260508171124 59 141 0.0 2.0 0.00 0.00 0.00 88 1017.2
20260508170123 59 135 0.0 2.0 0.00 0.00 0.00 87 1016.8
20260508165123 59 171 0.0 3.0 0.00 0.00 0.00 88 1016.8
20260508164123 59 113 0.0 3.0 0.00 0.00 0.00 88 1017.0
20260508163122 59 90 0.0 5.0 0.00 0.00 0.00 89 1017.0
20260508162123 58 40 0.0 6.0 0.00 0.00 0.00 91 1016.8
20260508161123 58 135 0.0 0.0 0.00 0.00 0.00 91 1016.7
20260508160123 58 113 0.0 2.0 0.00 0.00 0.00 91 1016.5
20260508155143 58 90 0.0 3.0 0.00 0.00 0.00 91 1016.5
20260508154123 57 68 0.0 0.0 0.00 0.00 0.00 93 1016.5
20260508153123 57 90 0.0 0.0 0.00 0.00 0.00 94 1016.6
20260508152144 57 113 0.0 2.0 0.00 0.00 0.00 95 1016.6
20260508151145 57 135 0.0 0.0 0.00 0.00 0.00 95 1016.3
20260508150122 56 113 0.0 0.0 0.00 0.00 0.00 95 1016.5
20260508145124 56 113 0.0 0.0 0.00 0.00 0.00 95 1016.5
20260508144143 56 135 0.0 0.0 0.00 0.00 0.00 95 1016.3
20260508143123 56 113 0.0 0.0 0.00 0.00 0.00 96 1016.1
20260508142144 56 113 0.0 0.0 0.00 0.00 0.00 96 1015.8
20260508141123 55 113 0.0 0.0 0.00 0.00 0.00 97 1015.8
20260508140124 55 90 0.0 0.0 0.00 0.00 0.00 98 1015.8
20260508135143 55 68 0.0 0.0 0.00 0.00 0.00 98 1015.8
20260508134123 55 90 0.0 0.0 0.00 0.00 0.00 98 1015.8
20260508133122 55 90 0.0 0.0 0.00 0.00 0.00 98 1015.7
20260508132123 55 113 0.0 0.0 0.00 0.00 0.00 98 1015.6
20260508131122 56 113 0.0 0.0 0.00 0.00 0.00 98 1015.6
20260508130122 56 113 0.0 0.0 0.00 0.00 0.00 97 1015.7
20260508125123 56 113 0.0 0.0 0.00 0.00 0.00 96 1015.7
20260508124122 55 113 0.0 0.0 0.00 0.00 0.00 96 1015.5
20260508123122 56 68 0.0 0.0 0.00 0.00 0.00 96 1015.3
20260508122123 56 90 0.0 0.0 0.00 0.00 0.00 96 1015.5
20260508121124 56 90 0.0 0.0 0.00 0.00 0.00 96 1015.3
20260508120143 56 113 0.0 0.0 0.00 0.00 0.00 96 1015.3
20260508115122 55 113 0.0 0.0 0.00 0.00 0.00 96 1015.3
20260508114123 55 90 0.0 0.0 0.00 0.00 0.00 96 1015.3
20260508113122 55 45 0.0 0.0 0.00 0.00 0.00 96 1015.2
20260508112123 55 45 0.0 0.0 0.00 0.00 0.00 96 1015.2
20260508111144 55 90 0.0 0.0 0.00 0.00 0.00 95 1015.2
20260508110143 56 45 0.0 0.0 0.00 0.00 0.00 94 1015.1
20260508105123 56 45 0.0 0.0 0.00 0.00 0.00 93 1015.1
20260508104122 56 90 0.0 0.0 0.00 0.00 0.00 93 1015.2
20260508103144 56 45 0.0 0.0 0.00 0.00 0.00 93 1015.2
20260508102143 56 68 0.0 0.0 0.00 0.00 0.00 93 1015.1
20260508101144 56 113 0.0 0.0 0.00 0.00 0.00 93 1015.2
20260508100122 56 68 0.0 0.0 0.00 0.00 0.00 93 1015.2
20260508095123 56 68 0.0 0.0 0.00 0.00 0.00 93 1015.2
20260508094122 56 113 0.0 0.0 0.00 0.00 0.00 92 1015.1
20260508093144 56 113 0.0 0.0 0.00 0.00 0.00 92 1015.1
20260508092143 56 45 0.0 0.0 0.00 0.00 0.00 92 1015.0
20260508091122 56 23 0.0 0.0 0.00 0.00 0.00 93 1014.8
20260508090122 56 45 0.0 0.0 0.00 0.00 0.00 93 1015.1
20260508085123 56 45 0.0 0.0 0.00 0.00 0.00 93 1015.1
20260508084122 56 45 0.0 0.0 0.00 0.00 0.00 93 1015.2
20260508083143 56 45 0.0 0.0 0.00 0.00 0.00 93 1015.2
20260508082122 56 45 0.0 0.0 0.00 0.00 0.00 94 1015.2
20260508081122 56 45 0.0 0.0 0.00 0.00 0.00 94 1015.2
20260508080122 56 45 0.0 0.0 0.00 0.00 0.00 95 1015.3
20260508075143 56 45 0.0 0.0 0.00 0.00 0.00 95 1015.3
20260508074122 55 68 0.0 0.0 0.00 0.00 0.00 95 1015.3
20260508073123 55 45 0.0 0.0 0.00 0.00 0.00 96 1015.5
20260508072122 55 45 0.0 0.0 0.00 0.00 0.00 96 1015.6
20260508071122 55 45 0.0 0.0 0.00 0.00 0.00 96 1015.5
20260508070122 55 45 0.0 0.0 0.00 0.00 0.00 96 1015.6
20260508065122 55 68 0.0 0.0 0.00 0.00 0.00 96 1015.6
20260508064122 55 45 0.0 0.0 0.00 0.00 0.00 96 1015.8
20260508063123 56 360 0.0 0.0 0.00 0.00 0.00 96 1015.7
20260508062123 56 68 0.0 0.0 0.00 0.00 0.00 97 1015.7
20260508061122 57 45 0.0 0.0 0.00 0.00 0.00 97 1015.8
20260508060123 57 90 0.0 0.0 0.00 0.00 0.00 96 1015.6
20260508055122 57 45 0.0 0.0 0.00 0.00 0.00 93 1015.6
20260508054122 57 113 0.0 0.0 0.00 0.00 0.00 93 1015.6
20260508053122 58 113 0.0 0.0 0.00 0.00 0.00 92 1015.6
20260508052122 58 135 0.0 0.0 0.00 0.00 0.00 92 1015.5
20260508051123 58 90 0.0 0.0 0.00 0.00 0.00 91 1015.5
20260508050122 58 113 0.0 0.0 0.00 0.00 0.00 91 1015.6
20260508045123 58 135 0.0 0.0 0.00 0.00 0.00 91 1015.6
20260508044143 59 68 0.0 0.0 0.00 0.00 0.00 91 1015.7